EW5254 Weather Reports


time (UTC)temp
C
wind
direction
speed
KPH
gust
KPH
rain 1hr
cm
rain 24hr
cm
rain mn
cm
humidity
%
barometer
mb
20260510190006 27 351 17.7 32.2 0.00 0.00 0.00 27 1001.3
20260510184505 28 32 22.5 35.4 0.00 0.00 0.00 24 1001.1
20260510183012 27 74 19.3 33.8 0.00 0.00 0.00 25 1001.2
20260510181505 28 35 9.7 32.2 0.00 0.00 0.00 23 1001.3
20260510180005 27 55 20.9 32.2 0.00 0.00 0.00 19 1001.3
20260510174502 31 331 8.0 19.3 0.00 0.00 0.00 11 1001.1
20260510173003 30 269 9.7 29.0 0.00 0.00 0.00 12 1000.9
20260510171605 30 288 16.1 27.4 0.00 0.00 0.00 11 1001.0
20260510170113 30 300 12.9 29.0 0.00 0.00 0.00 11 1000.9
20260510164601 30 275 17.7 29.0 0.00 0.00 0.00 11 1000.9
20260510163054 29 261 12.9 32.2 0.00 0.00 0.00 12 1000.8
20260510161553 28 259 16.1 29.0 0.00 0.00 0.00 12 1000.8
20260510160058 28 223 19.3 25.7 0.00 0.00 0.00 14 1000.8
20260510154553 27 246 19.3 27.4 0.00 0.00 0.00 14 1000.7
20260510153048 27 205 19.3 27.4 0.00 0.00 0.00 16 1000.7
20260510151539 26 213 17.7 29.0 0.00 0.00 0.00 18 1000.7
20260510150037 26 207 16.1 27.4 0.00 0.00 0.00 24 1000.7
20260510144532 25 219 17.7 24.1 0.00 0.00 0.00 26 1000.6
20260510143038 24 238 19.3 27.4 0.00 0.00 0.00 28 1000.6
20260510141524 23 233 12.9 22.5 0.00 0.00 0.00 36 1000.5
20260510140022 22 207 12.9 19.3 0.00 0.00 0.00 38 1000.4
20260510134518 22 211 12.9 20.9 0.00 0.00 0.00 40 1000.2
20260510133017 21 206 16.1 27.4 0.00 0.00 0.00 41 1000.0
20260510131514 21 206 14.5 29.0 0.00 0.00 0.00 41 999.9
20260510130016 20 200 9.7 16.1 0.00 0.00 0.00 41 999.6
20260510124516 21 207 16.1 32.2 0.00 0.00 0.00 41 999.2
20260510123014 20 184 19.3 25.7 0.00 0.00 0.00 40 998.8
20260510121511 20 211 19.3 27.4 0.00 0.00 0.00 41 998.7
20260510120011 20 188 19.3 30.6 0.00 0.00 0.00 42 998.6
20260510114513 20 192 19.3 29.0 0.00 0.00 0.00 42 998.5
20260510113014 20 187 22.5 33.8 0.00 0.00 0.00 41 998.4
20260510111507 20 184 20.9 32.2 0.00 0.00 0.00 42 998.4
20260510110010 20 194 20.9 37.0 0.00 0.00 0.00 42 998.4
20260510104508 20 180 22.5 40.2 0.00 0.00 0.00 43 998.4
20260510103001 20 192 19.3 33.8 0.00 0.00 0.00 43 998.4
20260510101559 20 213 22.5 37.0 0.00 0.00 0.00 41 998.3
20260510100100 21 207 22.5 37.0 0.00 0.00 0.00 39 998.2
20260510094555 21 186 20.9 29.0 0.00 0.00 0.00 33 998.3
20260510093054 21 174 14.5 20.9 0.00 0.00 0.00 33 998.2
20260510091557 21 184 17.7 25.7 0.00 0.00 0.00 34 998.1
20260510084556 21 148 20.9 27.4 0.00 0.00 0.00 31 998.2
20260510083047 21 183 12.9 24.1 0.00 0.00 0.00 31 998.3
20260510081546 21 169 14.5 20.9 0.00 0.00 0.00 29 998.4
20260510080042 22 157 19.3 27.4 0.00 0.00 0.00 26 998.5
20260510074540 22 159 19.3 25.7 0.00 0.00 0.00 28 998.7
20260510073041 22 167 16.1 29.0 0.00 0.00 0.00 26 998.7
20260510071539 22 196 19.3 30.6 0.00 0.00 0.00 28 998.9
20260510070043 22 180 17.7 32.2 0.00 0.00 0.00 32 998.9
20260510064554 22 133 20.9 33.8 0.00 0.00 0.00 33 999.0
20260510063038 21 134 14.5 29.0 0.00 0.00 0.00 34 999.3
20260510061541 21 139 17.7 29.0 0.00 0.00 0.00 35 999.4
20260510060032 21 121 19.3 32.2 0.00 0.00 0.00 35 999.4
20260510054522 22 139 19.3 40.2 0.00 0.00 0.00 30 999.4
20260510053019 21 153 19.3 38.6 0.00 0.00 0.00 33 999.6
20260510051516 22 169 22.5 32.2 0.00 0.00 0.00 31 999.7
20260510050014 22 151 25.7 45.1 0.00 0.00 0.00 29 999.8
20260510044513 22 163 17.7 35.4 0.00 0.00 0.00 28 999.8
20260510043012 22 103 19.3 32.2 0.00 0.00 0.00 28 999.9
20260510041511 22 149 14.5 29.0 0.00 0.00 0.00 27 1000.0
20260510040010 22 155 17.7 37.0 0.00 0.00 0.00 27 1000.0
20260510034510 23 171 17.7 30.6 0.00 0.00 0.00 26 999.8
20260510033012 23 142 20.9 32.2 0.00 0.00 0.00 25 999.6
20260510031509 23 149 20.9 37.0 0.00 0.00 0.00 23 999.5
20260510030008 23 146 19.3 32.2 0.00 0.00 0.00 21 999.4
20260510024507 24 167 17.7 35.4 0.00 0.00 0.00 19 999.3
20260510023007 24 151 20.9 37.0 0.00 0.00 0.00 19 999.2
20260510021509 25 174 17.7 30.6 0.00 0.00 0.00 19 999.2
20260510020005 25 161 14.5 29.0 0.00 0.00 0.00 18 999.1
20260510014504 25 138 12.9 30.6 0.00 0.00 0.00 17 998.9
20260510013004 26 115 11.3 20.9 0.00 0.00 0.00 12 998.8
20260510011503 26 160 11.3 19.3 0.00 0.00 0.00 12 998.7
20260510010001 27 84 11.3 17.7 0.00 0.00 0.00 12 998.7
20260510004602 27 86 8.0 14.5 0.00 0.00 0.00 11 998.7
20260510003101 28 72 6.4 17.7 0.00 0.00 0.00 11 998.7
20260510001557 28 98 12.9 19.3 0.00 0.00 0.00 11 998.8
20260510000104 29 126 6.4 12.9 0.00 0.00 0.00 10 999.0
20260509234604 30 340 4.8 12.9 0.00 0.00 0.00 10 999.2
20260509233056 30 67 6.4 19.3 0.00 0.00 0.00 10 999.2
20260509231607 30 57 3.2 9.7 0.00 0.00 0.00 10 999.3
20260509230059 29 29 4.8 16.1 0.00 0.00 0.00 10 999.5
20260509224546 29 120 1.6 20.9 0.00 0.00 0.00 10 999.6
20260509223045 29 24 6.4 19.3 0.00 0.00 0.00 10 999.7
20260509221542 29 47 16.1 25.7 0.00 0.00 0.00 11 999.8
20260509220040 30 39 4.8 14.5 0.00 0.00 0.00 9 1000.0
20260509214539 29 113 6.4 20.9 0.00 0.00 0.00 10 1000.2
20260509213037 28 5 8.0 22.5 0.00 0.00 0.00 10 1000.4
20260509211534 29 5 6.4 20.9 0.00 0.00 0.00 10 1000.7
20260509210034 29 338 4.8 20.9 0.00 0.00 0.00 10 1001.1
20260509204534 29 66 11.3 17.7 0.00 0.00 0.00 11 1001.3
20260509203035 29 78 1.6 14.5 0.00 0.00 0.00 11 1001.5
20260509201525 28 72 6.4 22.5 0.00 0.00 0.00 10 1001.8
20260509200023 30 297 1.6 14.5 0.00 0.00 0.00 12 1001.9
20260509194521 29 355 4.8 16.1 0.00 0.00 0.00 11 1002.0
20260509193019 29 344 6.4 22.5 0.00 0.00 0.00 11 1002.1
20260509191516 28 74 8.0 22.5 0.00 0.00 0.00 12 1002.3